Location: Newark
(40.9833°N, 0.0333°W)
Time: 03:35:31
(UTC+00:00)

Transit 2A Rocket - Pass Details

Date: 03 November 2020
Orbit: 588 x 914 km, 66.7° (Epoch: 26 November)

Event Time Altitude Azimuth Distance (km) Brightness Sun altitude
Rises 06:30:26 0° 162° (SSE) 3,528 9.0 -1.4°
Reaches altitude 10° 06:33:49 10° 143° (SE) 2,596 8.8 -0.8°
Maximum altitude 06:37:37 17° 104° (ESE) 2,108 9.0 -0.1°
Drops below altitude 10° 06:41:22 10° 65° (ENE) 2,567 8.5 0.5°
Sets 06:44:40 0° 47° (NE) 3,473 8.8 1.1°
